Wind_Speed
9 10 12 13 12 10 6 5 9 11 12 11 12 11 10 9 10 9 8 7 7 7 7 7 7 7 8 2 1 4 20 9 7 8 9 10 11 7 6 7 7 6 7 8 6
10 9 11 12 13 10 9 10 9 10 11 12 12 11 10 9 8 7 6 5 5 4 3 3 2 5 4 7 7 9 16 5 9 12 12 7 7 12 4 10 9 5 5 6 7
13 14 15 14 14 14 13 13 13 13 13 12 12 11 11 10 8 8 6 5 3 3 5 2 2 5 4 12 12 14 10 10 10 9 8 7 8 5 8 11 14 8 9 7 7
13 14 14 15 15 16 16 15 13 12 11 10 10 10 9 9 7 8 8 7 5 5 5 2 2 4 2 3 12 12 9 4 3 9 10 9 11 8 9 8 12 5 4 7 9
11 11 13 15 16 15 15 14 12 10 9 8 7 6 6 5 5 6 7 7 6 7 5 3 5 5 1 4 5 8 15 10 7 8 8 10 12 10 8 3 5 12 6 5 7
10 10 12 13 14 13 12 10 9 7 5 4 4 4 4 3 3 3 4 5 6 6 6 5 5 3 1 4 7 7 9 13 13 10 12 7 11 9 10 14 13 15 12 1 2
11 10 11 12 11 11 9 7 5 4 2 2 2 2 3 3 3 4 5 6 7 7 6 6 5 6 6 7 1 6 13 9 9 12 16 13 5 9 7 10 13 13 14 8 1
12 11 11 11 11 10 9 6 4 2 2 3 2 2 3 5 4 6 7 8 8 8 9 6 5 4 5 4 1 7 7 9 8 12 15 11 8 7 6 10 9 11 11 7 3
13 14 13 12 11 10 9 8 6 5 5 5 5 4 5 6 6 8 9 9 8 8 10 9 6 3 4 6 6 7 19 14 10 14 17 14 10 11 11 10 12 14 11 9 3
15 15 15 14 12 12 11 10 8 8 9 9 8 8 8 8 9 11 12 9 8 9 10 11 8 5 5 7 5 8 15 18 22 21 25 19 19 14 6 9 13 16 9 7 7
16 16 17 16 13 12 12 11 11 12 13 12 12 14 10 12 12 14 14 11 10 9 10 11 9 7 7 10 3 4 18 20 22 21 21 18 19 19 3 9 5 3 7 7 9
18 19 18 18 16 15 15 14 15 14 14 17 15 17 17 15 14 17 14 11 9 9 9 8 6 10 9 7 7 8 13 16 11 6 23 23 12 20 21 12 15 14 5 7 9
19 19 18 17 17 17 17 17 18 19 17 20 17 18 22 20 18 13 11 10 9 8 9 7 8 11 10 9 6 12 9 16 12 10 19 22 9 11 20 20 17 3 13 9 7
19 18 18 16 16 16 17 18 19 20 21 19 16 14 15 12 11 7 7 8 8 8 10 8 9 9 10 8 12 11 13 13 7 18 13 14 3 4 19 23 20 11 11 5 6
18 17 16 15 14 15 16 18 19 18 17 10 4 7 6 8 5 8 4 8 9 9 10 11 10 12 12 11 14 14 14 14 14 12 9 2 13 16 25 21 20 27 4 4 3
17 17 16 15 15 16 14 10 10 11 11 14 9 10 7 6 7 6 6 7 9 10 10 8 8 8 7 10 15 15 17 15 12 7 4 9 10 24 16 17 24 30 25 12 9
13 15 14 12 10 7 7 7 6 2 12 17 12 2 5 4 9 10 8 8 11 12 13 10 8 4 15 17 16 18 19 17 9 6 11 15 14 20 17 20 26 34 29 17 14
8 9 9 9 9 8 8 6 5 7 5 15 20 16 10 7 5 9 10 9 9 12 13 15 14 2 15 18 13 18 20 17 10 3 17 18 17 22 15 22 25 27 26 23 19
9 10 11 11 11 10 9 8 13 13 10 16 10 11 8 21 18 12 13 10 7 10 15 13 10 9 8 15 16 10 18 13 13 14 16 9 12 12 19 15 19 22 15 18 27
7 8 10 11 12 11 11 13 13 17 10 10 12 14 11 9 21 22 16 13 16 22 22 15 17 13 11 14 24 15 11 19 16 11 10 3 11 18 17 20 24 21 14 17 21
7 8 9 11 11 11 12 15 16 15 10 12 13 15 17 14 20 20 17 20 16 20 25 29 23 14 19 14 18 17 16 12 22 23 22 21 14 16 22 26 17 13 19 20 9
6 7 8 9 9 10 13 15 13 15 13 14 15 18 21 21 23 26 24 17 23 25 30 27 27 26 22 17 22 16 23 30 27 17 28 25 21 24 25 15 12 20 16 15 11
7 7 8 9 10 11 14 16 17 16 18 19 19 22 22 23 24 25 29 30 29 31 32 34 35 34 26 25 20 21 34 36 35 26 25 19 20 21 26 23 25 29 23 18 16
9 8 10 11 12 14 15 16 16 21 21 24 23 22 24 27 28 29 30 32 39 44 46 42 44 43 43 37 27 32 37 30 27 33 37 35 28 30 26 31 33 31 32 26 21
9 9 9 10 10 14 17 18 20 24 25 28 25 26 30 30 32 33 33 32 31 40 46 51 47 43 45 47 45 39 41 35 31 29 39 35 37 32 43 30 22 31 38 38 31
10 10 13 16 17 18 21 21 23 25 25 28 33 30 29 34 38 35 33 34 35 34 37 44 49 49 46 43 44 42 48 47 33 29 22 20 32 36 29 37 33 21 35 33 37
15 16 18 19 19 20 20 22 24 26 27 30 34 36 34 37 38 39 39 37 38 40 39 44 47 48 50 47 47 47 41 48 51 42 29 33 29 50 45 43 25 20 34 38 34
Wind_Direction
153 168 171 171 164 164 151 133 123 111 108 106 102 99 97 93 91 94 102 119 132 139 154 165 168 172 185 186 202 269 40 27 14 0 284 260 266 273 266 262 4 4 347 341 8
119 141 167 165 166 165 149 135 125 116 112 105 99 97 93 90 90 95 100 97 112 117 108 103 171 187 190 89 299 300 9 54 22 4 357 329 270 266 231 278 306 344 356 333 0
116 115 124 136 142 141 137 129 121 114 108 103 97 91 83 77 78 78 73 73 68 71 71 133 256 260 198 99 309 337 330 360 2 358 355 352 353 311 257 284 313 27 339 336 336
129 123 124 128 133 133 132 130 125 117 109 101 95 88 80 72 65 63 69 61 52 51 68 351 350 275 155 30 323 309 303 313 356 345 343 355 346 338 319 263 290 329 328 330 336
147 138 135 134 135 136 136 132 128 122 113 104 93 83 77 66 56 46 47 51 36 47 50 38 305 269 27 228 252 326 327 319 27 339 329 352 357 5 321 316 342 302 332 340 317
160 157 152 148 147 146 144 140 138 128 108 84 66 60 51 33 23 16 9 13 15 17 23 19 312 3 185 252 220 12 322 343 10 6 333 329 355 340 346 323 313 321 319 356 313
173 174 170 167 165 164 162 159 157 143 104 46 36 48 30 28 350 345 336 335 334 333 336 341 345 5 7 347 181 340 14 352 327 335 327 306 355 336 325 332 340 345 333 312 260
190 188 189 186 192 193 193 198 199 218 296 329 324 336 345 339 331 330 320 308 306 305 308 310 329 4 348 332 179 183 289 270 342 302 311 311 334 315 303 297 323 337 326 320 271
202 201 201 203 209 211 214 223 232 259 291 306 301 299 313 319 318 320 319 308 292 289 291 298 307 317 311 299 255 37 2 358 344 323 349 329 296 287 299 314 322 324 346 329 291
207 210 211 216 219 222 227 231 250 272 283 296 304 294 294 297 304 311 313 301 287 284 278 282 292 289 279 274 267 5 1 336 328 325 331 335 321 293 299 318 288 304 322 323 284
210 216 216 224 227 229 236 248 265 277 282 292 296 298 289 292 297 303 303 294 282 276 268 274 281 278 266 263 203 7 334 293 293 300 317 336 319 317 297 257 276 315 344 316 301
215 219 223 228 233 239 249 260 273 278 284 290 294 291 292 290 289 291 289 278 268 264 271 271 265 259 257 267 275 204 230 277 299 316 305 311 328 317 343 338 324 313 302 326 325
219 223 226 233 240 247 256 268 275 281 286 285 290 290 289 292 289 280 271 261 256 263 263 262 258 265 257 242 269 274 268 296 297 267 272 306 334 342 327 349 341 294 299 307 307
224 226 231 236 244 253 263 270 279 285 287 287 296 285 289 289 282 286 257 256 255 255 261 266 253 262 271 261 265 269 274 281 299 299 324 283 299 19 310 325 338 317 239 261 315
228 232 237 241 249 256 267 275 281 285 288 300 286 265 257 289 289 282 248 262 258 258 272 270 259 260 261 275 274 280 269 284 289 308 310 341 320 327 304 306 330 319 318 341 336
229 233 237 245 253 262 267 270 283 293 306 295 309 307 298 279 279 278 265 261 271 279 283 265 289 293 304 285 279 277 279 283 290 284 354 309 314 291 312 332 340 333 326 331 240
213 226 232 232 229 229 256 279 288 342 16 323 321 225 300 296 287 290 277 271 271 274 263 250 184 354 336 303 291 277 271 279 266 230 329 324 346 350 325 326 331 324 334 334 339
190 195 197 204 220 239 260 271 199 189 120 256 280 306 313 291 307 295 288 265 268 270 263 277 252 9 296 294 305 284 272 265 220 243 291 320 335 334 306 318 312 312 329 345 321
204 213 224 234 237 247 253 252 249 258 247 240 280 288 11 326 325 334 331 289 279 300 282 268 263 231 272 309 303 313 286 275 266 237 266 262 295 285 326 303 303 307 292 319 334
224 227 233 239 242 245 246 242 249 250 252 244 244 250 214 186 279 297 312 339 332 311 314 303 279 224 190 279 286 305 293 262 259 262 287 293 290 277 265 263 273 289 272 289 316
240 235 235 237 237 239 244 249 260 278 235 249 253 256 262 237 206 219 248 275 282 274 280 280 279 249 226 214 269 295 300 306 277 251 245 257 265 282 279 273 298 262 272 297 306
244 238 240 243 235 232 231 242 254 265 271 257 260 254 247 246 246 242 225 231 252 243 232 237 245 249 263 252 238 266 282 285 286 277 243 245 238 267 274 281 274 280 293 295 300
273 260 258 253 252 250 257 262 271 263 266 274 267 267 271 269 266 260 256 252 240 254 244 246 255 257 245 246 241 241 247 240 249 244 265 257 240 266 274 267 248 283 287 274 283
279 279 279 269 271 271 277 276 277 278 273 269 277 278 270 268 269 265 255 241 242 251 257 251 251 252 254 251 245 230 251 253 258 226 235 232 236 245 241 250 274 275 280 280 280
279 285 270 270 272 278 280 279 280 276 290 290 281 277 278 279 278 274 275 273 265 258 261 268 266 260 256 255 253 245 248 249 249 266 243 245 233 238 250 242 243 269 270 265 271
277 284 291 292 291 284 279 285 286 285 288 285 288 284 284 283 279 281 281 279 271 263 265 270 272 273 269 271 264 248 237 247 245 266 263 264 238 234 261 272 250 282 290 277 292
285 289 290 288 286 286 294 290 292 293 293 291 288 287 284 282 287 285 279 276 274 271 267 266 265 267 269 271 268 257 252 243 246 242 261 263 242 214 229 246 258 260 283 282 271
Height
5888 5890 5892 5894 5896 5897 5898 5898 5898 5899 5900 5900 5901 5901 5902 5902 5902 5903 5903 5905 5905 5905 5906 5907 5907 5907 5908 5909 5909 5908 5909 5908 5906 5905 5907 5905 5904 5902 5903 5903 5906 5905 5903 5902 5904
5889 5890 5891 5894 5895 5897 5899 5899 5900 5900 5901 5902 5902 5903 5903 5903 5904 5904 5905 5905 5905 5906 5907 5908 5908 5907 5906 5906 5905 5910 5911 5908 5906 5904 5905 5906 5904 5905 5905 5902 5904 5903 5903 5903 5903
5891 5892 5892 5894 5896 5898 5900 5900 5901 5902 5903 5904 5904 5905 5905 5905 5906 5905 5906 5905 5906 5907 5908 5907 5907 5909 5905 5907 5907 5906 5911 5907 5904 5907 5904 5903 5902 5903 5903 5901 5902 5905 5902 5901 5902
5893 5894 5895 5896 5898 5900 5901 5902 5903 5904 5905 5905 5906 5906 5906 5907 5908 5906 5906 5907 5906 5907 5907 5906 5907 5907 5904 5906 5908 5907 5905 5906 5905 5904 5903 5903 5902 5902 5901 5902 5901 5905 5905 5901 5900
5895 5895 5897 5898 5899 5901 5903 5904 5905 5906 5906 5907 5907 5907 5908 5908 5908 5907 5907 5907 5907 5907 5907 5906 5906 5905 5903 5904 5906 5907 5906 5907 5904 5906 5904 5902 5902 5903 5902 5901 5901 5904 5904 5903 5900
5895 5897 5898 5899 5901 5902 5904 5905 5906 5907 5907 5908 5908 5908 5909 5909 5908 5908 5907 5907 5907 5907 5907 5907 5907 5904 5903 5903 5905 5907 5906 5903 5906 5906 5906 5906 5905 5903 5902 5900 5901 5902 5901 5902 5901
5895 5897 5898 5900 5901 5903 5904 5905 5906 5907 5908 5908 5908 5908 5909 5909 5908 5908 5908 5907 5907 5907 5907 5907 5905 5904 5904 5903 5902 5905 5904 5902 5904 5905 5906 5907 5906 5904 5900 5898 5897 5896 5896 5897 5901
5894 5896 5898 5899 5901 5902 5904 5905 5906 5906 5907 5907 5908 5908 5908 5907 5907 5907 5907 5906 5906 5906 5905 5906 5905 5905 5905 5904 5903 5902 5902 5902 5902 5904 5904 5904 5904 5903 5901 5900 5898 5896 5893 5896 5899
5893 5895 5897 5898 5900 5901 5902 5904 5904 5905 5906 5906 5907 5907 5907 5906 5906 5906 5906 5905 5904 5904 5904 5903 5904 5904 5904 5903 5903 5902 5902 5901 5902 5901 5900 5901 5901 5901 5902 5904 5903 5901 5896 5894 5897
5891 5893 5896 5897 5898 5900 5901 5902 5903 5904 5904 5905 5905 5907 5906 5906 5905 5904 5903 5903 5903 5902 5902 5902 5902 5903 5903 5902 5901 5900 5902 5901 5898 5898 5898 5900 5896 5897 5898 5899 5899 5896 5895 5894 5894
5889 5892 5893 5895 5897 5898 5899 5901 5903 5903 5902 5903 5903 5902 5903 5903 5902 5901 5900 5900 5900 5900 5900 5900 5901 5902 5902 5901 5899 5901 5902 5903 5902 5899 5898 5899 5896 5895 5898 5894 5892 5893 5892 5893 5893
5887 5889 5891 5893 5895 5896 5897 5898 5899 5900 5901 5899 5900 5899 5898 5898 5899 5898 5897 5897 5897 5897 5897 5899 5899 5899 5899 5899 5899 5899 5901 5902 5902 5902 5897 5897 5897 5891 5893 5894 5899 5900 5894 5891 5890
5884 5886 5889 5891 5892 5894 5895 5895 5895 5895 5897 5896 5896 5895 5893 5894 5892 5893 5893 5893 5894 5895 5895 5896 5897 5896 5896 5897 5898 5899 5898 5899 5900 5900 5897 5895 5896 5894 5890 5891 5895 5891 5889 5891 5887
5881 5883 5886 5888 5891 5891 5892 5892 5892 5891 5892 5893 5893 5891 5890 5889 5889 5890 5890 5892 5892 5893 5893 5894 5893 5894 5894 5894 5896 5896 5897 5896 5896 5897 5896 5896 5895 5894 5889 5889 5891 5889 5888 5888 5888
5878 5881 5883 5885 5887 5888 5889 5889 5889 5888 5887 5890 5890 5888 5888 5887 5888 5887 5888 5889 5889 5890 5891 5891 5891 5892 5892 5893 5894 5894 5894 5894 5894 5893 5893 5893 5889 5889 5890 5890 5888 5889 5893 5888 5887
5876 5878 5880 5883 5884 5885 5886 5886 5886 5887 5885 5885 5885 5884 5884 5885 5885 5886 5885 5887 5887 5887 5888 5889 5890 5891 5891 5891 5891 5892 5891 5891 5892 5891 5891 5890 5888 5882 5885 5887 5885 5882 5880 5882 5884
5873 5875 5877 5879 5881 5882 5883 5884 5885 5884 5885 5883 5882 5883 5883 5884 5884 5883 5883 5884 5885 5885 5885 5885 5886 5888 5889 5889 5889 5888 5888 5888 5889 5887 5885 5887 5886 5885 5880 5882 5880 5879 5877 5877 5880
5872 5874 5876 5877 5879 5880 5881 5882 5882 5882 5882 5883 5880 5878 5881 5881 5883 5882 5882 5882 5882 5882 5882 5882 5884 5882 5885 5885 5886 5884 5884 5884 5885 5883 5884 5885 5884 5885 5881 5879 5878 5877 5876 5874 5878
5871 5873 5874 5876 5876 5877 5879 5879 5878 5877 5877 5878 5880 5881 5881 5879 5880 5880 5880 5881 5880 5880 5882 5879 5880 5877 5880 5881 5881 5883 5881 5882 5880 5881 5881 5884 5885 5885 5878 5877 5877 5877 5876 5877 5877
5869 5871 5872 5872 5874 5875 5876 5876 5875 5875 5876 5876 5877 5877 5876 5877 5877 5877 5877 5878 5877 5878 5876 5877 5876 5876 5877 5879 5876 5877 5880 5878 5878 5878 5879 5881 5882 5882 5882 5880 5880 5878 5877 5876 5876
5868 5869 5870 5870 5871 5872 5872 5872 5872 5870 5872 5872 5872 5873 5873 5874 5871 5872 5874 5876 5878 5876 5874 5870 5872 5875 5874 5874 5875 5876 5875 5877 5875 5875 5873 5875 5878 5876 5876 5875 5871 5873 5872 5872 5872
5867 5867 5867 5867 5869 5868 5868 5867 5868 5867 5867 5867 5867 5867 5866 5867 5867 5867 5868 5867 5862 5868 5864 5866 5863 5863 5866 5870 5872 5874 5874 5872 5869 5872 5872 5871 5873 5872 5873 5869 5869 5870 5868 5868 5867
5863 5864 5864 5865 5865 5865 5865 5865 5863 5862 5862 5863 5862 5861 5862 5862 5863 5863 5864 5864 5861 5856 5855 5858 5858 5856 5857 5862 5866 5868 5861 5854 5860 5862 5864 5866 5870 5868 5868 5867 5863 5866 5866 5867 5866
5860 5861 5861 5860 5860 5860 5860 5860 5859 5857 5857 5856 5857 5857 5855 5854 5853 5853 5854 5855 5852 5848 5844 5846 5847 5849 5849 5853 5857 5856 5851 5854 5851 5850 5855 5855 5859 5860 5858 5860 5860 5862 5859 5861 5864
5858 5858 5857 5858 5858 5856 5855 5855 5854 5852 5852 5849 5851 5850 5848 5847 5845 5843 5844 5846 5849 5844 5840 5835 5838 5838 5839 5841 5845 5848 5847 5846 5842 5845 5847 5850 5851 5855 5848 5849 5853 5854 5855 5856 5852
5855 5855 5854 5852 5852 5851 5849 5850 5848 5847 5847 5845 5840 5841 5841 5837 5833 5835 5836 5835 5834 5834 5832 5829 5824 5825 5827 5829 5831 5834 5836 5837 5837 5836 5839 5840 5843 5849 5836 5837 5840 5841 5846 5844 5843
5851 5851 5849 5849 5847 5845 5845 5843 5842 5840 5840 5836 5833 5831 5830 5827 5825 5823 5821 5821 5821 5819 5821 5816 5813 5813 5811 5815 5814 5818 5828 5828 5828 5830 5829 5827 5831 5829 5827 5823 5832 5828 5835 5836 5840